UAL9 KPHX-MMSD

Flight info

Callsign UAL9
Flight time 1h 41m
Altitude 35000
Route STRRM1 TUS J92 DASVU DCT ENEKO ENEKO1B
Aircraft A321/M-SDE3FGHIRWY/LB1

Departure

Time 2026-04-19 04:11
Airport Phoenix Sky Harbor International Airport (KPHX)

Arrival

Time 2026-04-19 05:52
Airport Los Cabos International Airport (MMSD)
Time Latitude Longitude Altitude Speed Heading
2026-04-19 03:42 33.43390 -112.00885 1131 ft 0 kts
2026-04-19 04:04 33.43369 -112.00881 1134 ft 4 kts 327°
2026-04-19 04:04 33.43355 -112.00874 1133 ft 1 kts 359°
2026-04-19 04:04 33.43352 -112.00874 1133 ft 0 kts 359°
2026-04-19 04:06 33.43353 -112.00874 1133 ft 0 kts 359°
2026-04-19 04:06 33.43372 -112.00848 1134 ft 10 kts 77°
2026-04-19 04:06 33.43301 -112.00765 1135 ft 17 kts 130°
2026-04-19 04:07 33.43287 -112.00613 1135 ft 21 kts 91°
2026-04-19 04:07 33.43280 -112.00463 1132 ft 11 kts 91°
2026-04-19 04:07 33.43252 -112.00376 1133 ft 13 kts 148°
2026-04-19 04:07 33.43218 -112.00297 1133 ft 8 kts 95°
2026-04-19 04:08 33.43215 -112.00216 1135 ft 12 kts 91°
2026-04-19 04:08 33.43215 -112.00089 1132 ft 19 kts 90°
2026-04-19 04:08 33.43219 -111.99912 1134 ft 23 kts 82°
2026-04-19 04:08 33.43224 -111.99703 1133 ft 27 kts 96°
2026-04-19 04:09 33.43220 -111.99625 1132 ft 6 kts 94°
2026-04-19 04:09 33.43216 -111.99533 1133 ft 17 kts 92°
2026-04-19 04:09 33.43203 -111.99371 1137 ft 19 kts 119°
2026-04-19 04:09 33.43107 -111.99392 1135 ft 16 kts 247°
2026-04-19 04:10 33.43103 -111.99521 1135 ft 18 kts 269°
2026-04-19 04:10 33.43103 -111.99935 1134 ft 90 kts 269°
2026-04-19 04:10 33.43103 -112.00985 1131 ft 157 kts 270°
2026-04-19 04:10 33.43117 -112.02467 1391 ft 189 kts 269°
2026-04-19 04:11 33.43092 -112.04104 2059 ft 204 kts 269°
2026-04-19 04:11 33.43016 -112.05890 2269 ft 226 kts 268°
2026-04-19 04:11 33.42838 -112.07851 2437 ft 250 kts 257°
2026-04-19 04:11 33.42289 -112.09888 2849 ft 262 kts 251°
2026-04-19 04:12 33.41631 -112.11925 3446 ft 267 kts 249°
2026-04-19 04:12 33.40932 -112.14004 4091 ft 270 kts 249°
2026-04-19 04:12 33.40230 -112.16109 4790 ft 272 kts 249°
2026-04-19 04:12 33.39254 -112.18019 5396 ft 275 kts 221°
2026-04-19 04:13 33.37561 -112.19033 6031 ft 275 kts 188°
2026-04-19 04:13 33.35667 -112.18888 6444 ft 274 kts 165°
2026-04-19 04:13 33.33866 -112.18138 6802 ft 274 kts 157°
2026-04-19 04:13 33.32111 -112.17230 7159 ft 275 kts 156°
2026-04-19 04:14 33.30347 -112.16338 7669 ft 276 kts 158°
2026-04-19 04:14 33.28603 -112.15378 8366 ft 275 kts 148°
2026-04-19 04:14 33.26982 -112.14173 8766 ft 275 kts 149°
2026-04-19 04:14 33.25345 -112.13043 9116 ft 275 kts 150°
2026-04-19 04:15 33.24208 -112.12294 9342 ft 276 kts 151°
2026-04-19 04:15 33.21965 -112.10849 9815 ft 276 kts 152°
2026-04-19 04:15 33.20263 -112.09765 10085 ft 279 kts 151°
2026-04-19 04:15 33.18507 -112.08647 10239 ft 295 kts 152°
2026-04-19 04:16 33.17275 -112.07860 10324 ft 309 kts 151°
2026-04-19 04:16 33.15317 -112.06605 10449 ft 329 kts 151°
2026-04-19 04:16 33.13252 -112.05279 10805 ft 340 kts 151°
2026-04-19 04:16 33.11158 -112.03934 11346 ft 344 kts 152°
2026-04-19 04:17 33.09059 -112.02587 11930 ft 348 kts 152°
2026-04-19 04:17 33.06920 -112.01215 12516 ft 351 kts 152°
2026-04-19 04:17 33.04751 -111.99824 13106 ft 355 kts 152°
2026-04-19 04:17 33.02562 -111.98419 13711 ft 359 kts 152°
2026-04-19 04:18 33.00355 -111.96999 14229 ft 363 kts 152°
2026-04-19 04:18 32.98076 -111.95629 14733 ft 367 kts 155°
2026-04-19 04:18 32.95753 -111.94380 15235 ft 370 kts 157°
2026-04-19 04:18 32.93364 -111.93180 15728 ft 374 kts 158°
2026-04-19 04:19 32.90934 -111.91982 16220 ft 378 kts 156°
2026-04-19 04:19 32.88632 -111.90451 16689 ft 383 kts 145°
2026-04-19 04:19 32.86604 -111.88374 17159 ft 387 kts 134°
2026-04-19 04:19 32.84788 -111.86056 17620 ft 391 kts 134°
2026-04-19 04:20 32.82931 -111.83675 18103 ft 394 kts 134°
2026-04-19 04:20 32.81044 -111.81259 18494 ft 398 kts 134°
2026-04-19 04:20 32.79159 -111.78855 18877 ft 402 kts 134°
2026-04-19 04:20 32.77238 -111.76415 19243 ft 405 kts 134°
2026-04-19 04:21 32.75302 -111.73963 19640 ft 408 kts 134°
2026-04-19 04:21 32.73353 -111.71494 20023 ft 411 kts 134°
2026-04-19 04:21 32.71398 -111.69018 20405 ft 414 kts 134°
2026-04-19 04:21 32.69413 -111.66509 20776 ft 417 kts 134°
2026-04-19 04:22 32.67408 -111.63975 21155 ft 420 kts 134°
2026-04-19 04:22 32.65400 -111.61438 21510 ft 424 kts 134°
2026-04-19 04:22 32.63379 -111.58883 21879 ft 427 kts 134°
2026-04-19 04:22 32.61340 -111.56308 22243 ft 430 kts 134°
2026-04-19 04:23 32.59290 -111.53724 22680 ft 433 kts 134°
2026-04-19 04:23 32.57241 -111.51142 23066 ft 435 kts 134°
2026-04-19 04:23 32.55153 -111.48511 23421 ft 439 kts 134°
2026-04-19 04:23 32.53058 -111.45872 23748 ft 442 kts 134°
2026-04-19 04:24 32.50936 -111.43200 24059 ft 445 kts 134°
2026-04-19 04:24 32.48793 -111.40503 24361 ft 447 kts 134°
2026-04-19 04:24 32.46648 -111.37808 24661 ft 450 kts 134°
2026-04-19 04:24 32.44520 -111.35138 24942 ft 452 kts 134°
2026-04-19 04:25 32.42327 -111.32388 25233 ft 455 kts 134°
2026-04-19 04:25 32.40176 -111.29693 25487 ft 458 kts 134°
2026-04-19 04:25 32.37980 -111.26945 25783 ft 460 kts 134°
2026-04-19 04:25 32.35776 -111.24190 26054 ft 463 kts 134°
2026-04-19 04:26 32.33562 -111.21424 26270 ft 465 kts 134°
2026-04-19 04:26 32.31321 -111.18628 26551 ft 468 kts 135°
2026-04-19 04:26 32.29079 -111.15829 26816 ft 471 kts 135°
2026-04-19 04:26 32.26825 -111.13016 27098 ft 473 kts 135°
2026-04-19 04:27 32.24547 -111.10176 27340 ft 476 kts 135°
2026-04-19 04:27 32.22270 -111.07340 27589 ft 478 kts 135°
2026-04-19 04:27 32.19969 -111.04475 27895 ft 480 kts 135°
2026-04-19 04:27 32.17666 -111.01611 28168 ft 483 kts 135°
2026-04-19 04:28 32.15326 -110.98726 28388 ft 484 kts 138°
2026-04-19 04:28 32.12751 -110.96182 28594 ft 484 kts 148°
2026-04-19 04:28 32.09886 -110.94206 28829 ft 482 kts 158°
2026-04-19 04:28 32.06723 -110.92794 29054 ft 480 kts 168°
2026-04-19 04:29 32.03500 -110.92038 29308 ft 476 kts 178°
2026-04-19 04:29 32.00221 -110.91910 29634 ft 470 kts 186°
2026-04-19 04:29 31.96931 -110.92073 29979 ft 470 kts 186°
2026-04-19 04:29 31.93676 -110.92226 30279 ft 469 kts 187°
2026-04-19 04:30 31.90412 -110.92375 30584 ft 467 kts 187°
2026-04-19 04:30 31.87172 -110.92517 30939 ft 464 kts 187°
2026-04-19 04:30 31.83963 -110.92655 31305 ft 462 kts 187°
2026-04-19 04:30 31.80751 -110.92796 31664 ft 459 kts 187°
2026-04-19 04:31 31.77560 -110.92941 32012 ft 457 kts 188°
2026-04-19 04:31 31.74378 -110.93093 32371 ft 455 kts 188°
2026-04-19 04:31 31.71213 -110.93246 32725 ft 453 kts 188°
2026-04-19 04:31 31.68097 -110.93394 33090 ft 451 kts 188°
2026-04-19 04:32 31.64959 -110.93537 33448 ft 449 kts 188°
2026-04-19 04:32 31.61843 -110.93676 33895 ft 447 kts 189°
2026-04-19 04:32 31.58750 -110.93814 34214 ft 445 kts 189°
2026-04-19 04:32 31.55653 -110.93955 34488 ft 445 kts 189°
2026-04-19 04:33 31.52563 -110.94099 34742 ft 444 kts 189°
2026-04-19 04:33 31.49468 -110.94245 34968 ft 445 kts 189°
2026-04-19 04:33 31.43337 -110.94531 35054 ft 442 kts 189°
2026-04-19 04:34 31.37155 -110.94811 35040 ft 440 kts 188°
2026-04-19 04:34 31.31082 -110.95083 35027 ft 439 kts 188°
2026-04-19 04:35 31.24972 -110.95369 35000 ft 439 kts 189°
2026-04-19 04:35 31.18863 -110.95651 34968 ft 439 kts 188°
2026-04-19 04:36 31.12766 -110.95926 34928 ft 439 kts 188°
2026-04-19 04:36 31.06667 -110.96201 34890 ft 438 kts 188°
2026-04-19 04:37 31.00572 -110.96478 34895 ft 438 kts 188°
2026-04-19 04:37 30.94519 -110.96757 34893 ft 438 kts 188°
2026-04-19 04:38 30.88438 -110.97036 34894 ft 437 kts 188°
2026-04-19 04:38 30.82343 -110.97312 34876 ft 437 kts 187°
2026-04-19 04:39 30.76275 -110.97593 34890 ft 436 kts 188°
2026-04-19 04:39 30.70210 -110.97897 34888 ft 436 kts 188°
2026-04-19 04:40 30.64189 -110.98199 34885 ft 436 kts 188°
2026-04-19 04:40 30.58090 -110.98499 34878 ft 435 kts 188°
2026-04-19 04:41 30.52042 -110.98799 34895 ft 435 kts 188°
2026-04-19 04:41 30.46040 -110.99077 34890 ft 435 kts 187°
2026-04-19 04:42 30.39983 -110.99345 34885 ft 435 kts 187°
2026-04-19 04:42 30.33942 -110.99617 34893 ft 435 kts 187°
2026-04-19 04:43 30.27900 -110.99891 34890 ft 434 kts 187°
2026-04-19 04:43 30.21875 -111.00167 34889 ft 433 kts 187°
2026-04-19 04:44 30.15844 -111.00439 34891 ft 433 kts 187°
2026-04-19 04:44 30.09861 -111.00705 34887 ft 432 kts 187°
2026-04-19 04:45 30.03846 -111.00970 34882 ft 432 kts 187°
2026-04-19 04:45 29.97857 -111.01233 34890 ft 430 kts 188°
2026-04-19 04:46 29.91879 -111.01506 34889 ft 429 kts 188°
2026-04-19 04:46 29.85918 -111.01782 34881 ft 428 kts 188°
2026-04-19 04:47 29.79968 -111.02051 34878 ft 428 kts 188°
2026-04-19 04:47 29.74018 -111.02318 34865 ft 427 kts 188°
2026-04-19 04:48 29.68090 -111.02584 34862 ft 426 kts 188°
2026-04-19 04:48 29.62171 -111.02840 34863 ft 425 kts 188°
2026-04-19 04:49 29.56290 -111.03100 34858 ft 425 kts 188°
2026-04-19 04:49 29.50380 -111.03368 34840 ft 425 kts 187°
2026-04-19 04:50 29.44472 -111.03643 34844 ft 425 kts 187°
2026-04-19 04:50 29.38565 -111.03911 34863 ft 425 kts 187°
2026-04-19 04:51 29.32655 -111.04174 34881 ft 425 kts 187°
2026-04-19 04:51 29.26752 -111.04436 34899 ft 425 kts 187°
2026-04-19 04:52 29.20845 -111.04697 34903 ft 424 kts 188°
2026-04-19 04:52 29.14976 -111.04956 34916 ft 424 kts 188°
2026-04-19 04:53 29.09021 -111.05138 34919 ft 428 kts 182°
2026-04-19 04:53 29.03112 -111.04497 34921 ft 430 kts 180°
2026-04-19 04:54 28.97146 -111.03824 34913 ft 430 kts 181°
2026-04-19 04:54 28.91178 -111.03163 34899 ft 430 kts 181°
2026-04-19 04:55 28.85211 -111.02510 34880 ft 430 kts 181°
2026-04-19 04:55 28.79245 -111.01858 34857 ft 431 kts 181°
2026-04-19 04:56 28.73280 -111.01202 34859 ft 431 kts 181°
2026-04-19 04:56 28.67312 -111.00538 34859 ft 430 kts 181°
2026-04-19 04:57 28.61392 -110.99878 34869 ft 430 kts 181°
2026-04-19 04:57 28.55446 -110.99220 34877 ft 429 kts 181°
2026-04-19 04:58 28.49496 -110.98574 34865 ft 429 kts 181°
2026-04-19 04:58 28.43555 -110.97914 34855 ft 429 kts 181°
2026-04-19 04:59 28.37620 -110.97250 34880 ft 428 kts 181°
2026-04-19 04:59 28.31701 -110.96605 34883 ft 427 kts 181°
2026-04-19 05:00 28.25792 -110.95961 34888 ft 426 kts 181°
2026-04-19 05:00 28.19892 -110.95318 34888 ft 426 kts 181°
2026-04-19 05:01 28.14033 -110.94684 34871 ft 425 kts 181°
2026-04-19 05:01 28.08145 -110.94048 34874 ft 426 kts 181°
2026-04-19 05:02 28.02241 -110.93401 34878 ft 426 kts 181°
2026-04-19 05:02 27.96348 -110.92757 34880 ft 426 kts 181°
2026-04-19 05:03 27.91442 -110.92104 34889 ft 427 kts 179°
2026-04-19 05:03 27.85539 -110.91159 34878 ft 428 kts 179°
2026-04-19 05:04 27.79646 -110.90214 34892 ft 427 kts 179°
2026-04-19 05:04 27.73775 -110.89320 34898 ft 427 kts 179°
2026-04-19 05:05 27.67875 -110.88442 34908 ft 426 kts 180°
2026-04-19 05:05 27.61991 -110.87564 34899 ft 426 kts 179°
2026-04-19 05:06 27.56125 -110.86679 34912 ft 425 kts 179°
2026-04-19 05:06 27.50245 -110.85791 34924 ft 425 kts 179°
2026-04-19 05:07 27.44432 -110.84914 34926 ft 425 kts 179°
2026-04-19 05:07 27.38565 -110.84032 34935 ft 425 kts 179°
2026-04-19 05:08 27.29772 -110.82716 34919 ft 425 kts 180°
2026-04-19 05:09 27.23919 -110.81843 34930 ft 425 kts 179°
2026-04-19 05:09 27.18036 -110.80961 34934 ft 425 kts 179°
2026-04-19 05:10 27.12226 -110.80091 34938 ft 424 kts 179°
2026-04-19 05:10 27.06341 -110.79212 34927 ft 424 kts 180°
2026-04-19 05:11 27.00479 -110.78341 34931 ft 424 kts 180°
2026-04-19 05:11 26.94680 -110.77476 34944 ft 424 kts 180°
2026-04-19 05:12 26.88825 -110.76604 34952 ft 424 kts 180°
2026-04-19 05:12 26.82966 -110.75726 34956 ft 424 kts 180°
2026-04-19 05:13 26.77106 -110.74852 34941 ft 424 kts 180°
2026-04-19 05:13 26.71246 -110.73981 34955 ft 423 kts 180°
2026-04-19 05:14 26.65449 -110.73123 34959 ft 423 kts 180°
2026-04-19 05:14 26.59579 -110.72263 34962 ft 422 kts 180°
2026-04-19 05:15 26.53793 -110.71412 34965 ft 422 kts 180°
2026-04-19 05:15 26.47959 -110.70547 34947 ft 422 kts 180°
2026-04-19 05:16 26.42155 -110.69682 34953 ft 422 kts 180°
2026-04-19 05:16 26.36331 -110.68818 34958 ft 422 kts 180°
2026-04-19 05:17 26.30500 -110.67964 34960 ft 422 kts 180°
2026-04-19 05:17 26.24682 -110.67115 34961 ft 422 kts 180°
2026-04-19 05:18 26.18870 -110.66261 34958 ft 421 kts 180°
2026-04-19 05:18 26.13069 -110.65398 34956 ft 421 kts 180°
2026-04-19 05:19 26.07283 -110.64550 34955 ft 421 kts 180°
2026-04-19 05:19 26.01473 -110.63704 34959 ft 421 kts 180°
2026-04-19 05:20 25.95673 -110.62857 34960 ft 421 kts 180°
2026-04-19 05:20 25.89853 -110.62006 34947 ft 421 kts 180°
2026-04-19 05:21 25.84065 -110.61157 34954 ft 421 kts 180°
2026-04-19 05:21 25.78248 -110.60304 34956 ft 420 kts 180°
2026-04-19 05:22 25.72446 -110.59449 34953 ft 420 kts 180°
2026-04-19 05:22 25.66642 -110.58608 34932 ft 420 kts 180°
2026-04-19 05:23 25.60842 -110.57766 34946 ft 420 kts 180°
2026-04-19 05:23 25.55041 -110.56924 34951 ft 420 kts 180°
2026-04-19 05:24 25.49247 -110.56079 34951 ft 420 kts 180°
2026-04-19 05:24 25.43447 -110.55239 34954 ft 420 kts 180°
2026-04-19 05:25 25.37638 -110.54395 34934 ft 420 kts 180°
2026-04-19 05:25 25.31873 -110.53506 34949 ft 425 kts 175°
2026-04-19 05:25 25.29020 -110.52504 34950 ft 436 kts 163°
2026-04-19 05:26 25.26336 -110.50849 34953 ft 449 kts 152°
2026-04-19 05:26 25.23951 -110.48564 34953 ft 461 kts 141°
2026-04-19 05:26 25.21712 -110.45965 34923 ft 462 kts 141°
2026-04-19 05:27 25.17306 -110.40849 34944 ft 463 kts 142°
2026-04-19 05:27 25.12850 -110.35694 34948 ft 463 kts 142°
2026-04-19 05:28 25.08389 -110.30560 34937 ft 463 kts 142°
2026-04-19 05:28 25.03915 -110.25429 34950 ft 463 kts 142°
2026-04-19 05:29 24.99462 -110.20310 34958 ft 463 kts 142°
2026-04-19 05:29 24.95022 -110.15208 34962 ft 463 kts 142°
2026-04-19 05:30 24.90519 -110.10040 34958 ft 463 kts 142°
2026-04-19 05:30 24.86091 -110.04970 34945 ft 463 kts 142°
2026-04-19 05:31 24.81620 -109.99864 34947 ft 463 kts 142°
2026-04-19 05:31 24.77140 -109.94742 34953 ft 463 kts 142°
2026-04-19 05:32 24.72660 -109.89629 34008 ft 472 kts 142°
2026-04-19 05:32 24.70330 -109.86984 32783 ft 482 kts 141°
2026-04-19 05:32 24.67996 -109.84332 31883 ft 485 kts 141°
2026-04-19 05:32 24.65671 -109.81682 30961 ft 489 kts 141°
2026-04-19 05:33 24.63313 -109.78987 30389 ft 484 kts 140°
2026-04-19 05:33 24.60988 -109.76327 29706 ft 482 kts 140°
2026-04-19 05:33 24.58668 -109.73679 29076 ft 478 kts 140°
2026-04-19 05:33 24.56353 -109.71043 28450 ft 474 kts 140°
2026-04-19 05:34 24.54065 -109.68441 27837 ft 470 kts 140°
2026-04-19 05:34 24.51829 -109.65902 27243 ft 465 kts 140°
2026-04-19 05:34 24.49579 -109.63346 26640 ft 461 kts 140°
2026-04-19 05:34 24.47358 -109.60825 26053 ft 457 kts 140°
2026-04-19 05:35 24.45152 -109.58327 25458 ft 454 kts 140°
2026-04-19 05:35 24.42993 -109.55886 25083 ft 445 kts 140°
2026-04-19 05:35 24.40865 -109.53463 24958 ft 431 kts 140°
2026-04-19 05:35 24.38708 -109.51273 24630 ft 414 kts 150°
2026-04-19 05:36 24.36250 -109.49790 24201 ft 397 kts 165°
2026-04-19 05:36 24.33624 -109.49082 23703 ft 385 kts 179°
2026-04-19 05:36 24.30985 -109.49104 23142 ft 377 kts 188°
2026-04-19 05:36 24.28401 -109.49351 22548 ft 375 kts 188°
2026-04-19 05:37 24.25796 -109.49603 21961 ft 372 kts 188°
2026-04-19 05:37 24.23226 -109.49849 21397 ft 370 kts 188°
2026-04-19 05:37 24.20664 -109.50094 20862 ft 368 kts 188°
2026-04-19 05:37 24.18110 -109.50338 20337 ft 366 kts 188°
2026-04-19 05:38 24.15569 -109.50578 19822 ft 364 kts 188°
2026-04-19 05:38 24.13064 -109.50812 19323 ft 362 kts 188°
2026-04-19 05:38 24.10551 -109.51044 18832 ft 361 kts 188°
2026-04-19 05:38 24.08062 -109.51277 18356 ft 359 kts 188°
2026-04-19 05:39 24.05569 -109.51516 17836 ft 357 kts 188°
2026-04-19 05:39 24.03131 -109.51753 17343 ft 354 kts 188°
2026-04-19 05:39 24.00684 -109.51989 16877 ft 351 kts 187°
2026-04-19 05:39 23.98249 -109.52217 16416 ft 349 kts 187°
2026-04-19 05:40 23.95834 -109.52439 15964 ft 346 kts 187°
2026-04-19 05:40 23.93449 -109.52662 15516 ft 343 kts 187°
2026-04-19 05:40 23.91081 -109.52938 15090 ft 340 kts 192°
2026-04-19 05:40 23.88825 -109.53630 14648 ft 335 kts 200°
2026-04-19 05:41 23.86624 -109.54456 14208 ft 333 kts 200°
2026-04-19 05:41 23.84437 -109.55266 13783 ft 331 kts 199°
2026-04-19 05:41 23.82245 -109.56073 13299 ft 329 kts 199°
2026-04-19 05:41 23.80077 -109.56872 12826 ft 328 kts 199°
2026-04-19 05:42 23.77929 -109.57663 12346 ft 326 kts 199°
2026-04-19 05:42 23.75801 -109.58446 11890 ft 325 kts 199°
2026-04-19 05:42 23.73669 -109.59228 11534 ft 320 kts 199°
2026-04-19 05:42 23.71594 -109.59989 11402 ft 308 kts 199°
2026-04-19 05:43 23.69604 -109.60720 11281 ft 296 kts 200°
2026-04-19 05:43 23.67690 -109.61427 11129 ft 287 kts 200°
2026-04-19 05:43 23.65810 -109.62122 10820 ft 283 kts 200°
2026-04-19 05:43 23.63950 -109.62809 10468 ft 282 kts 200°
2026-04-19 05:44 23.62082 -109.63496 10097 ft 281 kts 199°
2026-04-19 05:44 23.60256 -109.64168 9726 ft 281 kts 199°
2026-04-19 05:44 23.58407 -109.64849 9316 ft 280 kts 199°
2026-04-19 05:44 23.56565 -109.65528 9043 ft 274 kts 199°
2026-04-19 05:45 23.54789 -109.66184 8916 ft 263 kts 199°
2026-04-19 05:45 23.53087 -109.66811 8791 ft 253 kts 199°
2026-04-19 05:45 23.51419 -109.67424 8207 ft 251 kts 199°
2026-04-19 05:45 23.49776 -109.68025 7656 ft 246 kts 199°
2026-04-19 05:46 23.48163 -109.68617 7111 ft 243 kts 199°
2026-04-19 05:46 23.46567 -109.69206 6566 ft 242 kts 199°
2026-04-19 05:46 23.44980 -109.69790 6022 ft 241 kts 199°
2026-04-19 05:46 23.43411 -109.70365 5486 ft 242 kts 198°
2026-04-19 05:47 23.41815 -109.70950 5237 ft 240 kts 198°
2026-04-19 05:47 23.40244 -109.71523 4947 ft 239 kts 197°
2026-04-19 05:47 23.38665 -109.72101 4648 ft 238 kts 197°
2026-04-19 05:47 23.37093 -109.72679 4333 ft 238 kts 198°
2026-04-19 05:48 23.35528 -109.73255 4022 ft 238 kts 198°
2026-04-19 05:48 23.33959 -109.73828 3714 ft 237 kts 196°
2026-04-19 05:48 23.32339 -109.74026 3405 ft 234 kts 174°
2026-04-19 05:48 23.30747 -109.73846 3103 ft 231 kts 174°
2026-04-19 05:49 23.29198 -109.73667 2823 ft 214 kts 174°
2026-04-19 05:49 23.27803 -109.73505 2532 ft 189 kts 174°
2026-04-19 05:49 23.26559 -109.73360 2330 ft 168 kts 175°
2026-04-19 05:49 23.25454 -109.73234 2100 ft 155 kts 175°
2026-04-19 05:50 23.24749 -109.73153 1963 ft 151 kts 175°
2026-04-19 05:50 23.23369 -109.72996 1702 ft 149 kts 175°
2026-04-19 05:50 23.22673 -109.72915 1566 ft 148 kts 175°
2026-04-19 05:50 23.21650 -109.72799 1371 ft 148 kts 175°
2026-04-19 05:51 23.20634 -109.72685 1185 ft 147 kts 174°
2026-04-19 05:51 23.19626 -109.72573 1011 ft 147 kts 174°
2026-04-19 05:51 23.18608 -109.72457 818 ft 148 kts 174°
2026-04-19 05:51 23.17574 -109.72339 622 ft 149 kts 174°
2026-04-19 05:52 23.16536 -109.72221 425 ft 150 kts 174°
2026-04-19 05:52 23.15548 -109.72119 372 ft 132 kts 171°
2026-04-19 05:52 23.14889 -109.72042 355 ft 52 kts 174°
2026-04-19 05:52 23.14627 -109.71960 352 ft 30 kts 147°
2026-04-19 05:53 23.14501 -109.71861 354 ft 16 kts 148°
2026-04-19 05:53 23.14502 -109.71794 351 ft 10 kts 21°
2026-04-19 05:53 23.14563 -109.71796 346 ft 10 kts 354°
2026-04-19 05:53 23.14657 -109.71806 353 ft 18 kts 354°
2026-04-19 05:54 23.14807 -109.71824 354 ft 25 kts 353°
2026-04-19 05:54 23.15007 -109.71847 362 ft 32 kts 355°
2026-04-19 05:54 23.15249 -109.71875 364 ft 36 kts 354°
2026-04-19 05:54 23.15446 -109.71901 366 ft 3 kts 354°
2026-04-19 05:55 23.15461 -109.71902 367 ft 5 kts 355°
2026-04-19 05:55 23.15526 -109.71906 374 ft 13 kts 357°
2026-04-19 05:55 23.15606 -109.71867 370 ft 13 kts 64°
2026-04-19 05:55 23.15595 -109.71785 372 ft 5 kts 101°
2026-04-19 05:56 23.15597 -109.71770 374 ft 0 kts 80°